Starlink 11539

operational
NORAD ID: 62987 Int'l Des: 2025-031 Owner: SPXS Country: US Constellation: starlink
LEOCIRCULAR

About Starlink 11539

Description loading...

Live Position

Loading 3D Globe...

Upcoming Passes

Altitude History

Altitude vs Time

uPlot chart will show altitude changes over time

Two-Line Element Set

1 62987U 25031G 25257.95053812 .00178863 00000-0 13653-2 0 9990
2 62987 42.9985 340.7180 0001079 288.4691 71.6060 15.70881513 35107
Epoch: Sep 14, 2025 • Age: 21 hours

Current Status

Altitude 366.8 km
Velocity 7.69 km/s
Sub-Earth Point -39.54°S, 73.39°W
Launch Date Feb 11, 2025
Age 0.5 years
Type internet

Technical Details

Classification Payload
Mass 960.00 kg
Dry Mass 910.00 kg
Total Mass 960.00 kg
Length 0.30 m
Diameter 4.10 m
Span 29.00 m
Shape Box + pan
Manufacturer SPXS
Bus Type Starlink V2MD
Phase Status In Orbit
Owner/State SPXS/US

Large Constellations

Loading constellations...